Location: Unspecified
(0.0000°N, 0.0000°E)
Time: 07:41:51
(UTC+00:00)

Tiangong 1 - Visible Passes

Search period start: 24 January 2018 00:00
Search period end: 03 February 2018 00:00
Orbit: 260 x 286 km, 42.8° (Epoch: 23 January)

Date Brightness Start Highest point End Pass type
(mag) Time Alt. Az. Time Alt. Az. Time Alt. Az.
31 Jan 3.5 05:36:29 10° S 05:38:10 17° SE 05:39:51 10° E visible
01 Feb 1.1 05:33:41 10° SSW 05:35:59 53° SE 05:38:18 10° NE visible
02 Feb 0.8 05:31:33 11° WSW 05:33:38 38° NW 05:35:52 10° NNE visible
